When you browse on this site, cookies collect data to enhance your experience and personalize the content and advertising you see.
Visit our Privacy Policy to learn more. By continuing to use the site, you agree to this use of cookies and data.
EN

Hourly Weather Godylovo

Today, 22 September, Tuesday

Time Temperature Precipitation Wind Pressure Humidity
00:00 +10°C° 0 mm 3 mps 750 mmHg 88%
01:00 +10°C° 0 mm 3 mps 750 mmHg 89%
02:00 +10°C° 0 mm 3 mps 750 mmHg 89%
03:00 +10°C° 0 mm 3 mps 750 mmHg 89%
04:00 +9°C° 0 mm 3 mps 750 mmHg 89%
05:00 +9°C° 0 mm 3 mps 750 mmHg 88%
06:00 +10°C° 0 mm 3 mps 750 mmHg 84%
07:00 +11°C° 0 mm 3 mps 750 mmHg 80%
08:00 +12°C° 0 mm 3 mps 750 mmHg 76%
09:00 +14°C° 0 mm 3 mps 750 mmHg 70%
10:00 +17°C° 0 mm 3 mps 750 mmHg 64%
11:00 +19°C° 0 mm 4 mps 750 mmHg 58%
12:00 +20°C° 0 mm 4 mps 750 mmHg 55%
13:00 +21°C° 0 mm 4 mps 750 mmHg 53%
14:00 +22°C° 0 mm 4 mps 750 mmHg 50%
15:00 +21°C° 0 mm 4 mps 749 mmHg 55%
16:00 +20°C° 0 mm 3 mps 749 mmHg 60%
17:00 +19°C° 0 mm 2 mps 748 mmHg 65%
18:00 +18°C° 0 mm 2 mps 748 mmHg 69%
19:00 +16°C° 0 mm 2 mps 749 mmHg 72%
20:00 +15°C° 0 mm 2 mps 749 mmHg 76%
21:00 +14°C° 0 mm 2 mps 748 mmHg 77%
22:00 +14°C° 0 mm 2 mps 748 mmHg 78%
23:00 +13°C° 0 mm 2 mps 748 mmHg 79%

Tomorrow, 23 September, Wednesday

Time Temperature Precipitation Wind Pressure Humidity
00:00 +13°C° 0 mm 2 mps 748 mmHg 80%
01:00 +13°C° 0 mm 2 mps 748 mmHg 82%
02:00 +12°C° 0 mm 2 mps 748 mmHg 83%
03:00 +12°C° 0 mm 2 mps 748 mmHg 83%
04:00 +12°C° 0 mm 2 mps 748 mmHg 84%
05:00 +12°C° 0 mm 2 mps 748 mmHg 85%
06:00 +13°C° 0 mm 2 mps 748 mmHg 80%
07:00 +14°C° 0 mm 2 mps 748 mmHg 76%
08:00 +14°C° 0 mm 3 mps 748 mmHg 72%
09:00 +17°C° 0 mm 3 mps 748 mmHg 65%
10:00 +18°C° 0 mm 3 mps 748 mmHg 59%
11:00 +20°C° 0 mm 4 mps 748 mmHg 52%
12:00 +21°C° 0 mm 4 mps 748 mmHg 48%
13:00 +22°C° 0 mm 4 mps 748 mmHg 44%
14:00 +23°C° 0 mm 4 mps 747 mmHg 41%
15:00 +22°C° 0 mm 4 mps 747 mmHg 46%
16:00 +20°C° 0 mm 3 mps 747 mmHg 51%
17:00 +19°C° 0 mm 3 mps 746 mmHg 56%
18:00 +18°C° 0 mm 3 mps 746 mmHg 58%
19:00 +16°C° 0 mm 3 mps 747 mmHg 60%
20:00 +14°C° 0 mm 3 mps 747 mmHg 61%
21:00 +13°C° 0 mm 3 mps 747 mmHg 60%
22:00 +13°C° 0 mm 3 mps 747 mmHg 59%
23:00 +12°C° 0 mm 3 mps 746 mmHg 59%

Day after tomorrow, 24 September, Thursday

Time Temperature Precipitation Wind Pressure Humidity
00:00 +12°C° 0 mm 3 mps 747 mmHg 59%
01:00 +11°C° 0 mm 3 mps 747 mmHg 59%
02:00 +11°C° 0 mm 3 mps 747 mmHg 59%
03:00 +10°C° 0 mm 3 mps 747 mmHg 59%
04:00 +10°C° 0 mm 3 mps 746 mmHg 60%
05:00 +10°C° 0 mm 3 mps 746 mmHg 61%
06:00 +10°C° 0 mm 3 mps 746 mmHg 59%
07:00 +11°C° 0 mm 3 mps 746 mmHg 58%
08:00 +12°C° 0 mm 3 mps 746 mmHg 56%
09:00 +14°C° 0 mm 3 mps 746 mmHg 53%
10:00 +17°C° 0 mm 3 mps 746 mmHg 50%
11:00 +19°C° 0 mm 3 mps 746 mmHg 47%
12:00 +20°C° 0 mm 3 mps 746 mmHg 46%
13:00 +21°C° 0 mm 4 mps 747 mmHg 44%
14:00 +22°C° 0 mm 4 mps 747 mmHg 43%
15:00 +21°C° 0 mm 3 mps 746 mmHg 49%
16:00 +20°C° 0 mm 3 mps 746 mmHg 54%
17:00 +18°C° 0 mm 3 mps 746 mmHg 60%
18:00 +17°C° 0 mm 3 mps 746 mmHg 62%
19:00 +16°C° 0 mm 3 mps 746 mmHg 65%
20:00 +13°C° 0 mm 3 mps 746 mmHg 67%
21:00 +13°C° 0 mm 3 mps 746 mmHg 67%
22:00 +13°C° 0 mm 3 mps 746 mmHg 66%
23:00 +12°C° 0 mm 3 mps 747 mmHg 65%

25 September, Friday

Time Temperature Precipitation Wind Pressure Humidity
00:00 +12°C° 0 mm 3 mps 746 mmHg 64%
01:00 +11°C° 0 mm 3 mps 746 mmHg 64%
02:00 +11°C° 0 mm 3 mps 746 mmHg 63%
03:00 +11°C° 0 mm 3 mps 746 mmHg 63%
04:00 +11°C° 0 mm 3 mps 746 mmHg 62%
05:00 +10°C° 0 mm 3 mps 746 mmHg 62%
06:00 +11°C° 0 mm 3 mps 746 mmHg 60%
07:00 +12°C° 0 mm 3 mps 746 mmHg 58%
08:00 +13°C° 0 mm 4 mps 746 mmHg 57%
09:00 +15°C° 0 mm 4 mps 746 mmHg 54%
10:00 +18°C° 0 mm 4 mps 746 mmHg 51%
11:00 +20°C° 0 mm 4 mps 746 mmHg 48%
12:00 +21°C° 0 mm 4 mps 746 mmHg 47%
13:00 +22°C° 0 mm 5 mps 746 mmHg 47%
14:00 +23°C° 0 mm 5 mps 745 mmHg 46%
15:00 +22°C° 0 mm 4 mps 745 mmHg 52%
16:00 +21°C° 0 mm 4 mps 745 mmHg 58%
17:00 +20°C° 0 mm 4 mps 744 mmHg 64%
18:00 +19°C° 0 mm 4 mps 744 mmHg 65%
19:00 +18°C° 0 mm 4 mps 744 mmHg 66%
20:00 +15°C° 0 mm 4 mps 744 mmHg 68%
21:00 +15°C° 0 mm 4 mps 744 mmHg 66%
22:00 +14°C° 0 mm 4 mps 744 mmHg 65%
23:00 +14°C° 0 mm 4 mps 744 mmHg 64%

26 September, Saturday

Time Temperature Precipitation Wind Pressure Humidity
00:00 +14°C° 0 mm 4 mps 744 mmHg 63%
01:00 +13°C° 0 mm 4 mps 744 mmHg 63%
02:00 +13°C° 0 mm 4 mps 744 mmHg 62%
03:00 +13°C° 0 mm 4 mps 744 mmHg 62%
04:00 +12°C° 0 mm 4 mps 743 mmHg 62%
05:00 +12°C° 0 mm 4 mps 743 mmHg 62%
06:00 +13°C° 0 mm 5 mps 743 mmHg 62%
07:00 +14°C° 0 mm 5 mps 743 mmHg 61%
08:00 +14°C° 0 mm 5 mps 743 mmHg 61%
09:00 +16°C° 0 mm 6 mps 743 mmHg 57%
10:00 +19°C° 0 mm 6 mps 743 mmHg 54%
11:00 +21°C° 0 mm 6 mps 744 mmHg 51%
12:00 +22°C° 0 mm 7 mps 743 mmHg 50%
13:00 +22°C° 0 mm 7 mps 743 mmHg 48%
14:00 +23°C° 0 mm 7 mps 743 mmHg 47%
15:00 +22°C° 0 mm 6 mps 743 mmHg 51%
16:00 +21°C° 0 mm 6 mps 743 mmHg 55%
17:00 +20°C° 0 mm 5 mps 742 mmHg 60%
18:00 +19°C° 0 mm 5 mps 742 mmHg 60%
19:00 +17°C° 0 mm 6 mps 742 mmHg 60%
20:00 +17°C° 0 mm 6 mps 742 mmHg 60%
21:00 +17°C° 0 mm 6 mps 742 mmHg 60%
22:00 +16°C° 0 mm 6 mps 742 mmHg 60%
23:00 +16°C° 0 mm 6 mps 742 mmHg 61%

27 September, Sunday

Time Temperature Precipitation Wind Pressure Humidity
00:00 +16°C° 0 mm 6 mps 741 mmHg 58%
01:00 +16°C° 0 mm 6 mps 741 mmHg 55%
02:00 +16°C° 0 mm 6 mps 741 mmHg 52%
03:00 +17°C° 0 mm 6 mps 741 mmHg 49%
04:00 +17°C° 0 mm 7 mps 741 mmHg 47%
05:00 +18°C° 0 mm 7 mps 741 mmHg 45%
06:00 +17°C° 0 mm 7 mps 741 mmHg 49%
07:00 +17°C° 0 mm 8 mps 741 mmHg 53%
08:00 +17°C° 0 mm 8 mps 742 mmHg 57%
09:00 +17°C° 0.2 mm 8 mps 742 mmHg 59%
10:00 +17°C° 0.2 mm 8 mps 742 mmHg 62%
11:00 +17°C° 0.2 mm 8 mps 742 mmHg 64%
12:00 +17°C° 0.2 mm 8 mps 741 mmHg 64%
13:00 +17°C° 0.2 mm 8 mps 741 mmHg 63%
14:00 +17°C° 0.2 mm 8 mps 741 mmHg 62%
15:00 +17°C° 0.2 mm 8 mps 741 mmHg 62%
16:00 +18°C° 0.2 mm 8 mps 741 mmHg 61%
17:00 +18°C° 0.2 mm 8 mps 740 mmHg 61%
18:00 +18°C° 0.1 mm 8 mps 740 mmHg 63%
19:00 +17°C° 0.1 mm 8 mps 741 mmHg 65%
20:00 +17°C° 0.1 mm 7 mps 741 mmHg 66%
21:00 +17°C° 0.1 mm 6 mps 741 mmHg 71%
22:00 +16°C° 0.1 mm 5 mps 741 mmHg 75%
23:00 +15°C° 0.1 mm 4 mps 741 mmHg 79%
Show more